This demonstration page uses our WeatherBlox Daily Observations layout. Learn more.

Left ArrowRight Arrow

Hourly Observations for June 5, 2019

Temp ( °F °C ) Dew Point ( °F °C ) Humidity (%) Winds ( mph kmh ) Pressure ( in mb ) Visibility ( mi km ) Precip ( " mm )
12:53 am 00:53 Clear 62 16.7 42 5.6 48 48 SW 13 20 29.82 1010 10 16 0.00 0.00
1:53 am 01:53 Clear 54 12.2 41 5 62 62 SW 5 7 29.86 1011 10 16 0.00 0.00
2:53 am 02:53 Clear 55 12.8 35 1.7 47 47 WSW 10 17 29.87 1012 10 16 0.00 0.00
3:53 am 03:53 Clear 53 11.7 37 2.8 55 55 W 12 19 29.90 1013 10 16 0.00 0.00
4:53 am 04:53 Clear 51 10.6 42 5.6 71 71 WSW 12 19 29.92 1013 10 16 0.00 0.00
5:53 am 05:53 Sunny 50 10 42 5.6 74 74 WSW 9 15 29.95 1014 10 16 0.00 0.00
6:53 am 06:53 Sunny 51 10.6 43 6.1 74 74 WSW 12 19 29.96 1015 10 16 0.00 0.00
7:53 am 07:53 Sunny 54 12.2 43 6.1 67 67 W 10 17 29.98 1015 10 16 0.00 0.00
8:53 am 08:53 Sunny 58 14.4 43 6.1 58 58 WSW 10 17 29.99 1016 10 16 0.00 0.00
9:53 am 09:53 Sunny 61 16.1 43 6.1 52 52 W 13 20 29.97 1015 10 16 0.00 0.00
10:53 am 10:53 Sunny 65 18.3 43 6.1 45 45 SW 7 11 29.96 1015 10 16 0.00 0.00
11:53 am 11:53 Sunny 68 20 41 5 38 38 SW 9 15 29.95 1014 10 16 0.00 0.00
12:53 pm 12:53 Sunny 73 22.8 39 3.9 29 29 W 8 13 29.91 1013 10 16 0.00 0.00
1:53 pm 13:53 Sunny 76 24.4 35 1.7 23 23 W 10 17 29.90 1013 10 16 0.00 0.00
2:53 pm 14:53 Sunny 77 25 36 2.2 23 23 WSW 8 13 29.87 1012 10 16 0.00 0.00
3:53 pm 15:53 Sunny 77 25 32 0 19 19 VRB 6 9 29.86 1011 10 16 0.00 0.00
4:53 pm 16:53 Sunny 78 25.6 32 0 19 19 SW 9 15 29.84 1011 10 16 0.00 0.00
5:53 pm 17:53 Sunny 78 25.6 33 0.6 19 19 WSW 10 17 29.82 1010 10 16 0.00 0.00
6:53 pm 18:53 Sunny 78 25.6 35 1.7 21 21 SSE 5 7 29.79 1009 10 16 0.00 0.00
7:53 pm 19:53 Sunny 72 22.2 45 7.2 38 38 SSE 5 7 29.79 1009 10 16 0.00 0.00
8:53 pm 20:53 Sunny 67 19.4 48 8.9 51 51 SE 3 6 29.79 1009 10 16 0.00 0.00
9:53 pm 21:53 Clear 62 16.7 45 7.2 54 54 ESE 7 11 29.79 1009 10 16 0.00 0.00
10:53 pm 22:53 Clear 62 16.7 43 6.1 50 50 SE 5 7 29.78 1009 10 16 0.00 0.00
11:53 pm 23:53 Clear 59 15 41 5 51 51 W 3 6 29.78 1009 10 16 0.00 0.00

Powered by AerisWeather